Weather History for Sheridan, WY

Change the Weather History Date:

Tuesday, September 10, 2013

  Actual Average Record
Temperature  
Mean Temperature 64 °F 60 °F  
Max Temperature 78 °F 77 °F 92 °F (2012)
Min Temperature 49 °F 44 °F 28 °F (1989)
Degree Days  
Heating Degree Days 1 6  
Month to date heating degree days 1 44  
Since 1 July heating degree days 2 106  
Cooling Degree Days 0 1  
Month to date cooling degree days 71 18  
Year to date cooling degree days 581 408  
Growing Degree Days 13 (Base 50)    
Moisture  
Dew Point 47 °F    
Average Humidity 57    
Maximum Humidity 86    
Minimum Humidity 28    
Precipitation  
Precipitation 0.00 in 0.04 in 1.33 in (1947)
Month to date precipitation 0.56 0.39  
Year to date precipitation 10.55 10.44  
Sea Level Pressure  
Sea Level Pressure 30.07 in    
Wind  
Wind Speed 2 mph (SSW)    
Max Wind Speed 7 mph    
Max Gust Speed 9 mph    
Visibility 10 miles    
Events      
T = Trace of Precipitation, MM = Missing Value Source: NWS Daily Summary

Daily Weather History Graph

Daily Weather History Graph

Search for Another Location

Airport:

Trip Planner

Search our weather history database for the weather conditions in past years. The results will help you decide how hot, cold, wet, or windy it might be!

Date:

Astronomy

Sep. 10, 2013 Rise Set
Actual Time 6:41 AM MDT 7:27 PM MDT
Civil Twilight 6:11 AM MDT 7:56 PM MDT
Nautical Twilight 5:36 AM MDT 8:32 PM MDT
Astronomical Twilight 4:59 AM MDT 9:08 PM MDT
Moon 12:24 PM MDT (9/10) 10:17 PM MDT (9/10)
Length of Visible Light 13h 45m
Length of Day
12h 46m
Waxing Crescent, 29% of the Moon is Illuminated
Sep 10
Waxing Crescent
Sep 12
First Quarter
Sep 19
Full
Sep 26
Last Quarter
Oct 4
New

Hourly Weather History & Observations

Time (MDT) Temp. Dew Point Humidity Pressure Visibility Wind Dir Wind Speed Gust Speed Precip Events Conditions
12:53 AM 57.9 °F 46.0 °F 65% 30.01 in 10.0 mi Calm Calm - N/A   Clear
1:53 AM 59.0 °F 46.0 °F 62% 30.02 in 10.0 mi West 3.5 mph - N/A   Clear
2:53 AM 54.0 °F 46.9 °F 77% 30.03 in 10.0 mi South 5.8 mph - N/A   Clear
3:53 AM 52.0 °F 46.0 °F 80% 30.03 in 10.0 mi SSW 5.8 mph - N/A   Clear
4:53 AM 51.1 °F 46.0 °F 83% 30.04 in 10.0 mi Calm Calm - N/A   Clear
5:53 AM 50.0 °F 46.0 °F 86% 30.05 in 10.0 mi Calm Calm - N/A   Clear
6:53 AM 50.0 °F 45.0 °F 83% 30.08 in 10.0 mi Calm Calm - N/A   Clear
7:53 AM 55.9 °F 48.0 °F 75% 30.09 in 10.0 mi Calm Calm - N/A   Clear
8:53 AM 62.1 °F 48.9 °F 62% 30.11 in 10.0 mi Calm Calm - N/A   Clear
9:53 AM 66.0 °F 48.0 °F 52% 30.11 in 10.0 mi SSE 3.5 mph - N/A   Clear
10:53 AM 68.0 °F 48.9 °F 50% 30.11 in 10.0 mi East 3.5 mph - N/A   Clear
11:53 AM 70.0 °F 48.9 °F 47% 30.09 in 10.0 mi Variable 3.5 mph - N/A   Clear
12:53 PM 71.1 °F 46.0 °F 41% 30.07 in 10.0 mi SSE 3.5 mph - N/A   Clear
1:53 PM 71.1 °F 45.0 °F 39% 30.07 in 10.0 mi Calm Calm - N/A   Clear
2:53 PM 73.9 °F 43.0 °F 33% 30.06 in 10.0 mi Calm Calm - N/A   Clear
3:53 PM 73.9 °F 42.1 °F 32% 30.05 in 10.0 mi Calm Calm - N/A   Clear
4:53 PM 77.0 °F 41.0 °F 28% 30.04 in 10.0 mi Calm Calm - N/A   Clear
5:53 PM 75.9 °F 44.1 °F 32% 30.05 in 10.0 mi Calm Calm - N/A   Clear
6:53 PM 71.1 °F 51.1 °F 49% 30.07 in 10.0 mi SW 3.5 mph - N/A   Clear
7:53 PM 61.0 °F 50.0 °F 67% 30.08 in 10.0 mi WSW 5.8 mph - N/A   Clear
8:53 PM 57.9 °F 48.9 °F 72% 30.10 in 10.0 mi SSW 4.6 mph - N/A   Clear
9:53 PM 57.0 °F 48.0 °F 72% 30.10 in 10.0 mi Calm Calm - N/A   Clear
10:53 PM 55.0 °F 48.0 °F 77% 30.10 in 10.0 mi Calm Calm - N/A   Clear
11:53 PM 53.1 °F 46.9 °F 80% 30.10 in 10.0 mi Calm Calm - N/A   Clear